Location: Brusselsch Zeekanaal
(50.8667°N, 4.3667°E)
Time: 00:04:28
(UTC+00:00)

Cosmos 407 Rocket - Pass Details

Date: 08 November 2025
Orbit: 740 x 780 km, 74.0° (Epoch: 04 December)

Event Time Altitude Azimuth Distance (km) Brightness Sun altitude
Exits shadow 04:54:43 12° 332° (NNW) 2,136 5.5 -17.8°
Maximum altitude 04:59:29 73° 249° (WSW) 779 3.3 -17.0°
Drops below altitude 10° 05:04:33 10° 166° (SSE) 2,247 6.2 -16.2°
Sets 05:06:53 0° 164° (SSE) 3,167 7.0 -15.9°
